QPF
0.00 0.01 0.00 0.00 0.01 0.01 0.01 0.01 0.02 0.02 0.01 0.01 0.01 0.00 0.00 0.02 0.02 0.03 0.02 0.03 0.04 0.04 0.04 0.05 0.07 0.07 0.06 0.07 0.08 0.09 0.09 0.07 0.08 0.10 0.10 0.08 0.07 0.06 0.06 0.05 0.05 0.04 0.03 0.04 0.05 0.04 0.03 0.04 0.05
0.00 0.00 0.00 0.00 0.01 0.01 0.01 0.01 0.01 0.01 0.01 0.00 0.00 0.00 0.00 0.01 0.01 0.01 0.01 0.02 0.03 0.02 0.03 0.02 0.05 0.07 0.07 0.06 0.07 0.07 0.07 0.05 0.07 0.09 0.09 0.06 0.06 0.05 0.05 0.05 0.04 0.02 0.02 0.03 0.05 0.05 0.04 0.04 0.06
0.00 0.00 0.00 0.00 0.01 0.01 0.01 0.02 0.01 0.01 0.00 0.00 0.00 0.00 0.00 0.01 0.01 0.02 0.02 0.02 0.02 0.02 0.02 0.02 0.04 0.05 0.06 0.05 0.05 0.05 0.07 0.06 0.07 0.07 0.09 0.08 0.06 0.05 0.03 0.04 0.04 0.02 0.02 0.03 0.04 0.06 0.06 0.05 0.05
0.00 0.00 0.00 0.01 0.02 0.02 0.01 0.01 0.00 0.01 0.00 0.00 0.00 0.00 0.00 0.00 0.01 0.02 0.02 0.02 0.02 0.02 0.02 0.03 0.04 0.05 0.06 0.06 0.05 0.05 0.06 0.07 0.07 0.07 0.07 0.10 0.11 0.09 0.05 0.04 0.05 0.04 0.03 0.03 0.04 0.06 0.07 0.06 0.05
0.00 0.00 0.01 0.01 0.02 0.02 0.01 0.00 0.00 0.00 0.00 0.00 0.00 0.00 0.00 0.00 0.00 0.01 0.02 0.02 0.01 0.02 0.02 0.03 0.05 0.05 0.06 0.06 0.05 0.05 0.07 0.10 0.09 0.08 0.07 0.10 0.12 0.09 0.06 0.05 0.05 0.04 0.05 0.07 0.07 0.06 0.07 0.06 0.06
0.00 0.00 0.00 0.01 0.01 0.01 0.01 0.01 0.00 0.00 0.00 0.00 0.00 0.00 0.00 0.00 0.01 0.01 0.01 0.01 0.01 0.01 0.01 0.02 0.06 0.07 0.06 0.05 0.04 0.05 0.07 0.09 0.09 0.09 0.09 0.09 0.10 0.08 0.07 0.07 0.05 0.04 0.04 0.07 0.09 0.06 0.05 0.06 0.05
0.00 0.00 0.00 0.01 0.01 0.00 0.00 0.00 0.00 0.00 0.00 0.00 0.00 0.00 0.00 0.00 0.00 0.00 0.00 0.00 0.01 0.00 0.01 0.02 0.04 0.04 0.05 0.06 0.06 0.04 0.05 0.07 0.07 0.08 0.10 0.09 0.09 0.08 0.07 0.06 0.05 0.05 0.04 0.06 0.09 0.08 0.06 0.06 0.07
0.00 0.00 0.00 0.00 0.01 0.01 0.00 0.00 0.00 0.00 0.00 0.00 0.00 0.00 0.00 0.00 0.00 0.00 0.00 0.00 0.00 0.00 0.01 0.02 0.03 0.03 0.04 0.06 0.06 0.05 0.04 0.05 0.07 0.07 0.06 0.07 0.07 0.08 0.08 0.06 0.05 0.06 0.06 0.07 0.11 0.09 0.05 0.07 0.07
0.00 0.00 0.00 0.00 0.01 0.01 0.00 0.00 0.00 0.00 0.00 0.00 0.00 0.00 0.00 0.00 0.00 0.00 0.00 0.00 0.00 0.00 0.01 0.01 0.02 0.02 0.03 0.04 0.04 0.04 0.04 0.04 0.06 0.08 0.07 0.06 0.08 0.09 0.09 0.06 0.05 0.06 0.07 0.09 0.11 0.10 0.06 0.06 0.07
0.00 0.00 0.00 0.00 0.00 0.00 0.00 0.00 0.00 0.00 0.00 0.00 0.00 0.00 0.00 0.00 0.00 0.00 0.00 0.00 0.01 0.01 0.01 0.01 0.01 0.02 0.03 0.03 0.05 0.05 0.04 0.05 0.05 0.06 0.07 0.05 0.06 0.08 0.08 0.08 0.09 0.08 0.10 0.11 0.10 0.08 0.04 0.03 0.06
0.00 0.00 0.00 0.00 0.00 0.00 0.00 0.00 0.00 0.00 0.00 0.00 0.00 0.00 0.00 0.00 0.00 0.01 0.00 0.00 0.01 0.01 0.01 0.00 0.00 0.01 0.02 0.04 0.04 0.05 0.06 0.06 0.06 0.05 0.05 0.05 0.04 0.05 0.07 0.10 0.12 0.12 0.11 0.10 0.09 0.06 0.03 0.04 0.06
0.00 0.00 0.00 0.00 0.00 0.00 0.00 0.00 0.00 0.00 0.00 0.00 0.00 0.00 0.00 0.00 0.01 0.02 0.01 0.00 0.00 0.01 0.01 0.00 0.00 0.02 0.03 0.03 0.02 0.04 0.06 0.05 0.05 0.05 0.03 0.04 0.04 0.05 0.07 0.07 0.07 0.08 0.11 0.10 0.09 0.08 0.04 0.04 0.04
0.00 0.00 0.00 0.00 0.00 0.00 0.00 0.00 0.00 0.00 0.00 0.00 0.00 0.00 0.00 0.00 0.00 0.01 0.01 0.01 0.01 0.01 0.01 0.00 0.01 0.02 0.02 0.03 0.02 0.03 0.05 0.05 0.05 0.04 0.03 0.03 0.04 0.06 0.07 0.08 0.07 0.07 0.09 0.08 0.09 0.08 0.05 0.04 0.03
0.00 0.00 0.00 0.00 0.00 0.00 0.00 0.00 0.00 0.00 0.00 0.00 0.00 0.00 0.00 0.00 0.00 0.00 0.00 0.01 0.01 0.00 0.00 0.00 0.00 0.01 0.02 0.03 0.04 0.05 0.05 0.06 0.05 0.05 0.04 0.04 0.06 0.08 0.09 0.08 0.12 0.11 0.09 0.08 0.08 0.06 0.08 0.07 0.05
0.00 0.00 0.00 0.00 0.00 0.00 0.00 0.00 0.00 0.00 0.00 0.00 0.00 0.00 0.00 0.00 0.00 0.00 0.00 0.01 0.01 0.01 0.01 0.00 0.00 0.01 0.02 0.03 0.05 0.05 0.05 0.05 0.05 0.05 0.04 0.05 0.07 0.11 0.10 0.08 0.12 0.13 0.10 0.10 0.09 0.08 0.08 0.07 0.07
0.00 0.00 0.00 0.00 0.00 0.00 0.00 0.00 0.00 0.00 0.00 0.00 0.00 0.00 0.00 0.00 0.00 0.00 0.00 0.00 0.00 0.01 0.01 0.01 0.00 0.01 0.03 0.04 0.05 0.06 0.04 0.05 0.07 0.05 0.05 0.06 0.07 0.10 0.11 0.09 0.09 0.12 0.09 0.10 0.11 0.09 0.09 0.10 0.11
0.00 0.00 0.00 0.00 0.00 0.00 0.00 0.00 0.00 0.00 0.00 0.00 0.00 0.00 0.00 0.00 0.00 0.00 0.00 0.00 0.00 0.01 0.01 0.01 0.01 0.02 0.03 0.04 0.04 0.05 0.05 0.05 0.04 0.05 0.06 0.06 0.07 0.07 0.09 0.10 0.11 0.09 0.08 0.10 0.08 0.09 0.09 0.10 0.11
0.00 0.00 0.00 0.00 0.00 0.00 0.00 0.00 0.00 0.00 0.00 0.00 0.00 0.00 0.00 0.00 0.00 0.00 0.00 0.00 0.00 0.00 0.01 0.01 0.01 0.01 0.02 0.03 0.02 0.02 0.03 0.03 0.03 0.04 0.05 0.05 0.06 0.06 0.07 0.06 0.09 0.09 0.09 0.11 0.09 0.10 0.09 0.09 0.10
0.00 0.00 0.00 0.00 0.00 0.00 0.00 0.00 0.00 0.00 0.00 0.00 0.00 0.00 0.00 0.00 0.00 0.00 0.00 0.00 0.00 0.00 0.00 0.01 0.01 0.01 0.01 0.02 0.02 0.02 0.02 0.03 0.04 0.04 0.05 0.05 0.05 0.07 0.11 0.06 0.10 0.11 0.11 0.12 0.11 0.10 0.08 0.08 0.09
0.00 0.00 0.00 0.00 0.00 0.00 0.00 0.00 0.00 0.00 0.00 0.00 0.00 0.00 0.00 0.00 0.00 0.00 0.00 0.00 0.00 0.00 0.00 0.00 0.01 0.01 0.01 0.02 0.02 0.02 0.02 0.03 0.03 0.03 0.05 0.06 0.07 0.09 0.08 0.11 0.10 0.10 0.12 0.13 0.13 0.13 0.11 0.09 0.10
0.00 0.00 0.00 0.00 0.00 0.00 0.00 0.00 0.00 0.00 0.00 0.00 0.00 0.00 0.00 0.00 0.00 0.00 0.00 0.00 0.00 0.00 0.00 0.00 0.01 0.01 0.01 0.01 0.01 0.01 0.02 0.02 0.03 0.04 0.05 0.06 0.08 0.08 0.07 0.09 0.11 0.11 0.12 0.15 0.15 0.13 0.14 0.14 0.12
0.00 0.00 0.00 0.00 0.00 0.00 0.00 0.00 0.00 0.00 0.00 0.00 0.00 0.00 0.00 0.00 0.00 0.00 0.00 0.00 0.00 0.00 0.00 0.00 0.00 0.01 0.01 0.01 0.01 0.01 0.01 0.02 0.04 0.06 0.07 0.06 0.06 0.05 0.06 0.12 0.13 0.14 0.14 0.15 0.12 0.11 0.14 0.15 0.13
0.00 0.00 0.00 0.00 0.00 0.00 0.00 0.00 0.00 0.00 0.00 0.00 0.00 0.00 0.00 0.00 0.00 0.00 0.00 0.00 0.00 0.00 0.00 0.00 0.00 0.01 0.01 0.01 0.02 0.02 0.02 0.02 0.02 0.03 0.08 0.07 0.05 0.04 0.03 0.08 0.10 0.12 0.13 0.11 0.09 0.09 0.10 0.10 0.10
0.00 0.00 0.00 0.00 0.00 0.00 0.00 0.00 0.00 0.00 0.00 0.00 0.00 0.00 0.00 0.00 0.00 0.00 0.00 0.00 0.00 0.00 0.00 0.00 0.00 0.00 0.01 0.01 0.02 0.02 0.02 0.02 0.01 0.01 0.03 0.03 0.05 0.04 0.04 0.05 0.07 0.07 0.06 0.07 0.07 0.08 0.09 0.09 0.09
0.00 0.00 0.00 0.00 0.00 0.00 0.00 0.00 0.00 0.00 0.00 0.00 0.00 0.00 0.00 0.00 0.00 0.00 0.00 0.00 0.00 0.00 0.00 0.00 0.00 0.00 0.00 0.00 0.01 0.01 0.02 0.02 0.01 0.01 0.01 0.03 0.03 0.03 0.05 0.05 0.06 0.05 0.06 0.06 0.08 0.09 0.08 0.08 0.08
0.00 0.00 0.00 0.00 0.00 0.00 0.00 0.00 0.00 0.00 0.00 0.00 0.00 0.00 0.00 0.00 0.00 0.00 0.00 0.00 0.00 0.00 0.00 0.00 0.00 0.00 0.00 0.01 0.01 0.01 0.01 0.01 0.01 0.01 0.01 0.02 0.04 0.04 0.04 0.06 0.05 0.05 0.05 0.05 0.07 0.08 0.08 0.07 0.07
0.00 0.00 0.00 0.00 0.00 0.00 0.00 0.00 0.00 0.00 0.00 0.00 0.00 0.00 0.00 0.00 0.00 0.00 0.00 0.00 0.00 0.00 0.00 0.00 0.00 0.01 0.01 0.01 0.01 0.02 0.02 0.01 0.01 0.01 0.02 0.02 0.02 0.05 0.08 0.08 0.05 0.04 0.05 0.04 0.04 0.05 0.05 0.05 0.06
0.00 0.00 0.00 0.00 0.00 0.00 0.00 0.00 0.00 0.00 0.00 0.00 0.00 0.00 0.00 0.00 0.00 0.00 0.00 0.00 0.00 0.00 0.00 0.00 0.01 0.01 0.01 0.01 0.01 0.01 0.02 0.02 0.01 0.01 0.01 0.01 0.01 0.02 0.05 0.07 0.08 0.07 0.05 0.04 0.04 0.04 0.04 0.04 0.04
0.00 0.00 0.00 0.00 0.00 0.00 0.00 0.00 0.00 0.00 0.00 0.00 0.00 0.00 0.00 0.00 0.00 0.00 0.00 0.00 0.00 0.00 0.00 0.00 0.00 0.00 0.01 0.01 0.01 0.01 0.01 0.01 0.01 0.01 0.01 0.01 0.01 0.01 0.02 0.04 0.06 0.08 0.07 0.06 0.04 0.04 0.03 0.03 0.03
0.00 0.00 0.00 0.00 0.00 0.00 0.00 0.00 0.00 0.00 0.00 0.00 0.00 0.00 0.00 0.00 0.00 0.00 0.00 0.00 0.00 0.00 0.00 0.00 0.00 0.01 0.02 0.02 0.02 0.01 0.01 0.01 0.01 0.01 0.02 0.02 0.01 0.01 0.01 0.02 0.04 0.08 0.08 0.07 0.06 0.05 0.03 0.03 0.03
MSLP
1006.49 1007.08 1007.83 1008.67 1009.49 1010.22 1010.79 1011.18 1011.42 1011.54 1011.61 1011.66 1011.72 1011.78 1011.82 1011.81 1011.73 1011.59 1011.44 1011.33 1011.33 1011.47 1011.79 1012.24 1012.79 1013.34 1013.80 1014.13 1014.29 1014.30 1014.21 1014.10 1014.03 1014.06 1014.18 1014.38 1014.62 1014.83 1014.98 1015.04 1015.02 1014.97 1014.92 1014.93 1015.02 1015.19 1015.43 1015.69 1015.94
1006.53 1007.25 1008.12 1009.05 1009.93 1010.67 1011.19 1011.49 1011.60 1011.56 1011.46 1011.37 1011.31 1011.29 1011.29 1011.29 1011.24 1011.17 1011.09 1011.04 1011.09 1011.29 1011.64 1012.13 1012.71 1013.29 1013.80 1014.18 1014.39 1014.46 1014.42 1014.35 1014.30 1014.31 1014.41 1014.56 1014.72 1014.86 1014.93 1014.93 1014.87 1014.81 1014.79 1014.84 1014.99 1015.24 1015.54 1015.85 1016.13
1006.71 1007.50 1008.45 1009.42 1010.31 1011.02 1011.49 1011.70 1011.70 1011.55 1011.34 1011.16 1011.03 1010.98 1010.99 1011.01 1011.02 1011.00 1010.98 1010.98 1011.06 1011.27 1011.62 1012.10 1012.68 1013.27 1013.80 1014.21 1014.48 1014.60 1014.62 1014.59 1014.56 1014.58 1014.64 1014.73 1014.82 1014.87 1014.86 1014.81 1014.73 1014.67 1014.69 1014.81 1015.05 1015.37 1015.75 1016.11 1016.41
1007.01 1007.84 1008.79 1009.75 1010.61 1011.28 1011.69 1011.83 1011.76 1011.54 1011.29 1011.06 1010.93 1010.89 1010.92 1010.98 1011.04 1011.06 1011.07 1011.09 1011.17 1011.35 1011.67 1012.12 1012.67 1013.24 1013.77 1014.21 1014.51 1014.69 1014.77 1014.79 1014.79 1014.80 1014.84 1014.88 1014.91 1014.89 1014.83 1014.73 1014.65 1014.62 1014.69 1014.89 1015.22 1015.63 1016.06 1016.46 1016.77
1007.39 1008.21 1009.12 1010.02 1010.82 1011.43 1011.78 1011.88 1011.78 1011.56 1011.31 1011.10 1010.99 1010.98 1011.05 1011.14 1011.23 1011.27 1011.28 1011.29 1011.34 1011.49 1011.76 1012.16 1012.66 1013.20 1013.72 1014.16 1014.49 1014.71 1014.84 1014.90 1014.93 1014.96 1014.98 1014.99 1014.98 1014.92 1014.83 1014.72 1014.66 1014.67 1014.81 1015.09 1015.49 1015.97 1016.46 1016.88 1017.18
1007.80 1008.54 1009.37 1010.19 1010.90 1011.44 1011.76 1011.85 1011.77 1011.58 1011.38 1011.23 1011.18 1011.21 1011.31 1011.42 1011.51 1011.54 1011.53 1011.51 1011.52 1011.63 1011.85 1012.20 1012.65 1013.15 1013.65 1014.08 1014.42 1014.66 1014.82 1014.90 1014.96 1015.00 1015.03 1015.03 1015.01 1014.94 1014.85 1014.77 1014.74 1014.81 1015.01 1015.35 1015.82 1016.34 1016.86 1017.28 1017.56
1008.14 1008.79 1009.50 1010.21 1010.83 1011.30 1011.59 1011.70 1011.67 1011.57 1011.45 1011.39 1011.40 1011.48 1011.60 1011.71 1011.78 1011.79 1011.75 1011.69 1011.67 1011.74 1011.93 1012.24 1012.65 1013.12 1013.59 1014.00 1014.32 1014.56 1014.71 1014.81 1014.87 1014.93 1014.97 1014.98 1014.97 1014.93 1014.87 1014.83 1014.85 1014.98 1015.23 1015.63 1016.13 1016.67 1017.18 1017.58 1017.83
1008.35 1008.89 1009.48 1010.06 1010.59 1011.01 1011.29 1011.44 1011.48 1011.47 1011.46 1011.49 1011.58 1011.70 1011.84 1011.94 1011.99 1011.96 1011.89 1011.81 1011.78 1011.83 1012.01 1012.31 1012.70 1013.14 1013.57 1013.94 1014.23 1014.43 1014.56 1014.64 1014.70 1014.76 1014.81 1014.86 1014.89 1014.89 1014.88 1014.90 1014.97 1015.14 1015.44 1015.86 1016.36 1016.89 1017.38 1017.74 1017.94
1008.40 1008.83 1009.30 1009.77 1010.21 1010.57 1010.85 1011.04 1011.17 1011.26 1011.37 1011.50 1011.65 1011.82 1011.97 1012.06 1012.09 1012.04 1011.95 1011.87 1011.84 1011.91 1012.10 1012.41 1012.80 1013.21 1013.61 1013.93 1014.16 1014.31 1014.39 1014.43 1014.47 1014.53 1014.61 1014.69 1014.77 1014.83 1014.89 1014.97 1015.09 1015.30 1015.61 1016.03 1016.51 1017.00 1017.44 1017.75 1017.91
1008.32 1008.66 1009.02 1009.39 1009.74 1010.06 1010.33 1010.55 1010.75 1010.95 1011.15 1011.37 1011.60 1011.81 1011.97 1012.06 1012.07 1012.02 1011.93 1011.87 1011.87 1011.98 1012.21 1012.54 1012.94 1013.34 1013.70 1013.97 1014.14 1014.22 1014.23 1014.24 1014.25 1014.31 1014.41 1014.54 1014.67 1014.81 1014.93 1015.07 1015.23 1015.46 1015.77 1016.16 1016.60 1017.03 1017.41 1017.67 1017.78
1008.16 1008.44 1008.72 1008.99 1009.26 1009.52 1009.78 1010.02 1010.27 1010.54 1010.83 1011.13 1011.41 1011.66 1011.85 1011.95 1011.97 1011.93 1011.87 1011.84 1011.89 1012.05 1012.33 1012.70 1013.11 1013.50 1013.83 1014.04 1014.15 1014.16 1014.13 1014.09 1014.09 1014.15 1014.28 1014.45 1014.66 1014.86 1015.05 1015.24 1015.44 1015.67 1015.97 1016.31 1016.69 1017.05 1017.36 1017.56 1017.63
1008.03 1008.26 1008.46 1008.66 1008.85 1009.05 1009.27 1009.51 1009.78 1010.10 1010.44 1010.79 1011.13 1011.42 1011.64 1011.77 1011.81 1011.80 1011.78 1011.80 1011.91 1012.12 1012.44 1012.84 1013.27 1013.65 1013.95 1014.13 1014.18 1014.15 1014.07 1014.01 1014.00 1014.08 1014.25 1014.49 1014.76 1015.03 1015.29 1015.52 1015.74 1015.97 1016.23 1016.52 1016.83 1017.13 1017.36 1017.50 1017.53
1007.99 1008.19 1008.34 1008.45 1008.57 1008.69 1008.85 1009.06 1009.33 1009.66 1010.03 1010.42 1010.80 1011.13 1011.39 1011.55 1011.64 1011.67 1011.70 1011.77 1011.92 1012.18 1012.53 1012.95 1013.38 1013.76 1014.04 1014.19 1014.22 1014.17 1014.08 1014.01 1014.02 1014.14 1014.35 1014.65 1014.98 1015.32 1015.64 1015.91 1016.15 1016.37 1016.60 1016.83 1017.07 1017.29 1017.46 1017.54 1017.52
1008.10 1008.28 1008.37 1008.41 1008.44 1008.49 1008.58 1008.73 1008.96 1009.27 1009.64 1010.05 1010.45 1010.83 1011.12 1011.34 1011.48 1011.56 1011.64 1011.75 1011.93 1012.22 1012.58 1013.01 1013.43 1013.80 1014.07 1014.22 1014.25 1014.21 1014.13 1014.10 1014.14 1014.30 1014.57 1014.92 1015.31 1015.70 1016.06 1016.37 1016.62 1016.83 1017.02 1017.20 1017.38 1017.53 1017.64 1017.67 1017.62
1008.36 1008.50 1008.54 1008.52 1008.47 1008.43 1008.43 1008.51 1008.68 1008.95 1009.30 1009.70 1010.13 1010.53 1010.88 1011.15 1011.34 1011.48 1011.60 1011.75 1011.96 1012.24 1012.60 1013.01 1013.43 1013.79 1014.06 1014.22 1014.27 1014.26 1014.23 1014.24 1014.33 1014.53 1014.84 1015.23 1015.67 1016.10 1016.49 1016.81 1017.07 1017.27 1017.43 1017.58 1017.70 1017.80 1017.86 1017.85 1017.76
1008.70 1008.80 1008.79 1008.71 1008.59 1008.47 1008.40 1008.40 1008.50 1008.70 1009.01 1009.40 1009.82 1010.25 1010.65 1010.98 1011.24 1011.43 1011.60 1011.78 1011.99 1012.27 1012.61 1013.00 1013.39 1013.74 1014.02 1014.20 1014.30 1014.34 1014.36 1014.42 1014.55 1014.78 1015.12 1015.53 1015.98 1016.42 1016.82 1017.15 1017.41 1017.61 1017.75 1017.87 1017.96 1018.02 1018.04 1018.00 1017.89
1009.05 1009.11 1009.06 1008.93 1008.77 1008.60 1008.46 1008.38 1008.40 1008.53 1008.77 1009.12 1009.53 1009.98 1010.41 1010.80 1011.13 1011.39 1011.61 1011.82 1012.04 1012.30 1012.62 1012.97 1013.34 1013.69 1013.98 1014.20 1014.35 1014.44 1014.52 1014.61 1014.77 1015.02 1015.34 1015.74 1016.17 1016.60 1016.99 1017.32 1017.57 1017.76 1017.90 1018.00 1018.08 1018.12 1018.12 1018.06 1017.94
1009.31 1009.34 1009.28 1009.14 1008.96 1008.76 1008.57 1008.43 1008.37 1008.41 1008.57 1008.86 1009.24 1009.69 1010.15 1010.60 1010.99 1011.33 1011.60 1011.85 1012.09 1012.34 1012.64 1012.97 1013.32 1013.67 1013.98 1014.23 1014.43 1014.57 1014.69 1014.81 1014.97 1015.19 1015.48 1015.83 1016.21 1016.60 1016.96 1017.27 1017.52 1017.71 1017.85 1017.96 1018.03 1018.06 1018.06 1018.01 1017.89
1009.45 1009.47 1009.43 1009.32 1009.17 1008.97 1008.76 1008.56 1008.40 1008.34 1008.40 1008.60 1008.92 1009.34 1009.82 1010.32 1010.78 1011.19 1011.54 1011.83 1012.10 1012.37 1012.65 1012.97 1013.31 1013.66 1013.99 1014.29 1014.53 1014.71 1014.86 1014.98 1015.12 1015.30 1015.52 1015.79 1016.10 1016.42 1016.74 1017.03 1017.27 1017.47 1017.63 1017.74 1017.82 1017.87 1017.88 1017.84 1017.75
1009.44 1009.49 1009.52 1009.49 1009.41 1009.24 1009.02 1008.76 1008.51 1008.32 1008.25 1008.32 1008.55 1008.92 1009.39 1009.92 1010.45 1010.94 1011.37 1011.73 1012.04 1012.33 1012.62 1012.94 1013.28 1013.64 1014.00 1014.33 1014.61 1014.83 1015.00 1015.12 1015.22 1015.33 1015.47 1015.65 1015.87 1016.12 1016.39 1016.65 1016.89 1017.10 1017.28 1017.42 1017.52 1017.59 1017.62 1017.60 1017.54
1009.30 1009.45 1009.60 1009.69 1009.71 1009.60 1009.37 1009.05 1008.68 1008.34 1008.10 1008.01 1008.11 1008.40 1008.84 1009.39 1009.98 1010.55 1011.06 1011.50 1011.87 1012.20 1012.51 1012.84 1013.19 1013.57 1013.95 1014.32 1014.64 1014.89 1015.07 1015.19 1015.25 1015.30 1015.36 1015.45 1015.59 1015.77 1015.99 1016.23 1016.47 1016.69 1016.89 1017.05 1017.18 1017.27 1017.32 1017.34 1017.31
1009.12 1009.41 1009.72 1009.97 1010.10 1010.06 1009.82 1009.42 1008.92 1008.39 1007.94 1007.67 1007.61 1007.78 1008.17 1008.72 1009.35 1010.00 1010.59 1011.11 1011.55 1011.93 1012.27 1012.61 1012.98 1013.38 1013.79 1014.19 1014.56 1014.85 1015.05 1015.17 1015.22 1015.22 1015.22 1015.24 1015.30 1015.43 1015.61 1015.83 1016.07 1016.30 1016.52 1016.70 1016.85 1016.95 1017.02 1017.06 1017.07
1008.97 1009.43 1009.92 1010.33 1010.58 1010.59 1010.33 1009.83 1009.16 1008.44 1007.77 1007.28 1007.04 1007.09 1007.41 1007.94 1008.60 1009.31 1009.99 1010.58 1011.09 1011.51 1011.88 1012.24 1012.62 1013.04 1013.48 1013.92 1014.33 1014.67 1014.91 1015.05 1015.10 1015.09 1015.05 1015.03 1015.05 1015.13 1015.29 1015.49 1015.73 1015.98 1016.21 1016.40 1016.54 1016.65 1016.72 1016.78 1016.81
1008.88 1009.52 1010.18 1010.74 1011.08 1011.12 1010.82 1010.21 1009.38 1008.44 1007.55 1006.85 1006.44 1006.35 1006.59 1007.10 1007.79 1008.55 1009.29 1009.95 1010.51 1010.97 1011.37 1011.74 1012.13 1012.56 1013.02 1013.50 1013.95 1014.35 1014.64 1014.83 1014.91 1014.91 1014.86 1014.82 1014.83 1014.89 1015.03 1015.23 1015.46 1015.71 1015.93 1016.11 1016.25 1016.34 1016.40 1016.45 1016.49
1008.87 1009.67 1010.47 1011.13 1011.53 1011.57 1011.20 1010.47 1009.47 1008.34 1007.26 1006.38 1005.81 1005.61 1005.79 1006.27 1006.97 1007.77 1008.57 1009.28 1009.88 1010.36 1010.77 1011.14 1011.53 1011.96 1012.44 1012.95 1013.45 1013.90 1014.26 1014.50 1014.63 1014.66 1014.64 1014.61 1014.61 1014.67 1014.80 1014.99 1015.22 1015.45 1015.66 1015.82 1015.93 1015.99 1016.02 1016.04 1016.08
1008.89 1009.79 1010.68 1011.39 1011.80 1011.80 1011.37 1010.53 1009.39 1008.11 1006.88 1005.86 1005.18 1004.91 1005.04 1005.51 1006.22 1007.05 1007.88 1008.62 1009.24 1009.74 1010.15 1010.51 1010.88 1011.31 1011.79 1012.32 1012.86 1013.36 1013.77 1014.08 1014.27 1014.35 1014.37 1014.36 1014.38 1014.44 1014.57 1014.75 1014.96 1015.17 1015.35 1015.48 1015.55 1015.57 1015.56 1015.55 1015.57
1008.88 1009.81 1010.71 1011.42 1011.79 1011.74 1011.23 1010.31 1009.08 1007.72 1006.41 1005.32 1004.59 1004.28 1004.39 1004.86 1005.58 1006.43 1007.27 1008.03 1008.66 1009.15 1009.55 1009.89 1010.25 1010.66 1011.14 1011.67 1012.23 1012.77 1013.23 1013.59 1013.84 1013.97 1014.03 1014.05 1014.09 1014.16 1014.28 1014.45 1014.64 1014.83 1014.98 1015.08 1015.11 1015.08 1015.03 1014.98 1014.97
1008.77 1009.65 1010.49 1011.14 1011.45 1011.33 1010.77 1009.81 1008.56 1007.18 1005.86 1004.78 1004.05 1003.75 1003.86 1004.34 1005.07 1005.92 1006.76 1007.52 1008.14 1008.62 1008.99 1009.32 1009.65 1010.04 1010.51 1011.05 1011.61 1012.17 1012.67 1013.07 1013.35 1013.53 1013.62 1013.67 1013.72 1013.80 1013.92 1014.08 1014.26 1014.43 1014.56 1014.62 1014.62 1014.57 1014.48 1014.39 1014.35
1008.50 1009.28 1010.01 1010.55 1010.78 1010.62 1010.04 1009.08 1007.87 1006.55 1005.30 1004.28 1003.60 1003.34 1003.48 1003.95 1004.67 1005.50 1006.32 1007.05 1007.65 1008.11 1008.47 1008.78 1009.10 1009.47 1009.93 1010.46 1011.02 1011.59 1012.10 1012.52 1012.83 1013.03 1013.15 1013.23 1013.29 1013.37 1013.49 1013.65 1013.82 1013.98 1014.10 1014.16 1014.14 1014.07 1013.96 1013.85 1013.78
1008.10 1008.74 1009.33 1009.76 1009.91 1009.71 1009.15 1008.26 1007.14 1005.94 1004.80 1003.88 1003.29 1003.06 1003.21 1003.67 1004.34 1005.12 1005.89 1006.58 1007.14 1007.58 1007.92 1008.22 1008.54 1008.92 1009.37 1009.89 1010.46 1011.02 1011.54 1011.97 1012.29 1012.51 1012.65 1012.73 1012.81 1012.90 1013.03 1013.18 1013.36 1013.52 1013.64 1013.70 1013.70 1013.63 1013.52 1013.40 1013.32
Thickness
5831 5833 5834 5827 5818 5807 5790 5793 5799 5794 5792 5796 5796 5792 5784 5776 5769 5757 5774 5781 5779 5777 5771 5765 5762 5761 5761 5760 5760 5759 5759 5758 5758 5758 5757 5757 5757 5757 5756 5757 5757 5756 5756 5755 5754 5753 5753 5752 5751
5840 5839 5833 5829 5816 5793 5786 5797 5795 5793 5795 5798 5795 5791 5785 5775 5777 5774 5776 5778 5779 5777 5772 5767 5761 5760 5759 5759 5758 5758 5757 5756 5756 5756 5756 5756 5755 5755 5755 5755 5755 5754 5754 5754 5753 5752 5751 5750 5750
5844 5842 5834 5829 5811 5796 5789 5799 5797 5799 5802 5798 5791 5790 5783 5774 5776 5777 5779 5779 5779 5775 5771 5764 5761 5759 5758 5757 5757 5756 5756 5755 5754 5754 5754 5754 5754 5753 5753 5753 5753 5753 5753 5752 5752 5751 5750 5749 5748
5845 5841 5838 5824 5804 5805 5805 5804 5804 5799 5799 5798 5793 5783 5781 5782 5782 5781 5780 5780 5778 5774 5771 5764 5760 5758 5757 5756 5755 5755 5754 5753 5752 5752 5752 5752 5752 5752 5752 5752 5752 5752 5751 5751 5750 5749 5748 5747 5747
5850 5843 5831 5816 5807 5811 5815 5813 5810 5801 5797 5796 5794 5780 5774 5782 5786 5783 5780 5779 5777 5775 5771 5765 5759 5757 5756 5755 5754 5753 5753 5752 5751 5751 5750 5750 5750 5750 5750 5750 5750 5750 5750 5749 5748 5748 5747 5746 5745
5848 5847 5825 5809 5807 5813 5817 5818 5813 5803 5797 5796 5792 5781 5774 5782 5782 5781 5780 5778 5777 5775 5771 5764 5759 5757 5755 5754 5753 5752 5752 5751 5750 5750 5749 5749 5749 5749 5749 5749 5749 5749 5748 5747 5747 5746 5745 5745 5744
5845 5841 5823 5818 5811 5811 5816 5822 5815 5805 5798 5797 5799 5784 5778 5781 5783 5783 5781 5777 5776 5774 5772 5768 5764 5758 5755 5754 5753 5752 5751 5750 5750 5749 5748 5748 5748 5747 5748 5748 5748 5747 5747 5746 5746 5745 5744 5744 5743
5857 5848 5831 5825 5816 5812 5822 5823 5819 5811 5802 5807 5805 5788 5779 5783 5786 5784 5780 5777 5774 5773 5771 5767 5766 5763 5760 5756 5753 5751 5751 5750 5749 5749 5748 5747 5747 5747 5747 5747 5747 5747 5746 5746 5745 5744 5744 5743 5743
5861 5845 5828 5827 5822 5820 5827 5820 5819 5822 5811 5807 5807 5803 5798 5792 5788 5782 5777 5775 5771 5770 5770 5769 5767 5763 5761 5759 5755 5753 5751 5750 5750 5749 5748 5747 5748 5749 5748 5748 5747 5746 5746 5745 5745 5744 5744 5743 5743
5857 5839 5833 5841 5840 5833 5829 5824 5820 5815 5805 5801 5800 5801 5799 5792 5787 5781 5777 5773 5772 5770 5770 5768 5767 5764 5762 5760 5757 5755 5755 5752 5752 5751 5750 5750 5749 5749 5749 5747 5746 5746 5746 5745 5744 5744 5743 5744 5746
5857 5844 5846 5848 5849 5844 5834 5829 5829 5817 5805 5806 5801 5797 5796 5792 5788 5785 5782 5779 5777 5774 5771 5770 5767 5764 5762 5760 5758 5756 5755 5754 5753 5752 5751 5750 5750 5749 5749 5748 5747 5747 5746 5747 5745 5745 5747 5748 5748
5855 5852 5853 5852 5852 5846 5839 5834 5828 5823 5820 5823 5818 5809 5801 5794 5791 5788 5785 5783 5781 5777 5773 5773 5769 5764 5761 5760 5759 5757 5756 5755 5755 5752 5752 5752 5751 5750 5750 5749 5749 5749 5748 5746 5747 5746 5748 5748 5748
5852 5851 5855 5856 5854 5850 5843 5836 5831 5827 5830 5829 5821 5812 5804 5800 5796 5794 5791 5787 5783 5778 5776 5774 5770 5765 5761 5759 5759 5759 5757 5757 5756 5753 5753 5752 5752 5751 5751 5749 5748 5749 5748 5747 5746 5747 5747 5747 5748
5855 5855 5854 5855 5852 5849 5840 5836 5833 5829 5833 5826 5818 5812 5809 5804 5801 5797 5792 5788 5785 5781 5778 5776 5771 5767 5764 5761 5759 5759 5759 5756 5757 5755 5754 5752 5752 5751 5750 5749 5748 5748 5748 5748 5748 5748 5747 5748 5749
5860 5850 5848 5851 5851 5849 5844 5829 5832 5836 5834 5824 5819 5815 5812 5808 5805 5800 5797 5792 5789 5785 5782 5778 5775 5771 5767 5765 5762 5762 5760 5760 5758 5756 5754 5752 5752 5750 5750 5750 5748 5749 5748 5747 5747 5748 5748 5748 5749
5854 5845 5836 5845 5850 5849 5838 5824 5837 5842 5833 5824 5822 5818 5813 5810 5809 5806 5803 5798 5795 5790 5785 5781 5780 5775 5770 5767 5765 5765 5763 5761 5759 5757 5756 5754 5752 5750 5750 5750 5750 5749 5748 5748 5748 5749 5748 5749 5750
5842 5835 5833 5839 5850 5848 5840 5832 5841 5845 5836 5828 5825 5822 5818 5814 5812 5811 5809 5804 5800 5795 5789 5784 5782 5778 5774 5770 5767 5766 5764 5762 5761 5759 5757 5756 5754 5752 5751 5751 5750 5749 5749 5749 5750 5751 5750 5748 5749
5831 5835 5833 5835 5847 5846 5839 5840 5844 5845 5840 5834 5830 5827 5822 5819 5817 5817 5814 5810 5805 5800 5794 5789 5784 5780 5777 5774 5770 5768 5766 5765 5764 5762 5758 5757 5755 5754 5753 5752 5751 5750 5750 5749 5749 5748 5748 5749 5749
5840 5835 5833 5838 5850 5844 5840 5841 5846 5846 5841 5836 5833 5830 5827 5825 5827 5824 5819 5815 5810 5804 5797 5792 5787 5784 5779 5776 5772 5769 5767 5767 5766 5764 5761 5758 5757 5755 5753 5754 5752 5751 5750 5749 5750 5749 5748 5748 5749
5836 5831 5833 5838 5846 5841 5840 5842 5852 5850 5845 5843 5838 5834 5832 5830 5829 5825 5822 5818 5814 5808 5802 5797 5791 5788 5783 5780 5776 5773 5771 5770 5768 5766 5763 5760 5758 5756 5756 5754 5754 5753 5751 5750 5749 5748 5748 5748 5749
5832 5832 5834 5832 5837 5841 5836 5836 5845 5850 5850 5848 5846 5844 5842 5838 5833 5829 5825 5822 5819 5813 5808 5804 5798 5793 5788 5784 5781 5777 5773 5771 5770 5767 5765 5763 5761 5758 5757 5757 5756 5755 5753 5752 5750 5749 5746 5745 5747
5825 5841 5838 5833 5826 5830 5830 5821 5840 5847 5844 5844 5845 5846 5845 5844 5841 5836 5831 5827 5824 5820 5816 5809 5803 5797 5792 5787 5783 5779 5774 5771 5771 5770 5769 5766 5763 5762 5760 5758 5757 5756 5755 5753 5752 5753 5749 5746 5744
5834 5843 5837 5833 5827 5824 5830 5821 5836 5845 5838 5843 5848 5850 5852 5851 5847 5842 5838 5834 5831 5827 5821 5813 5806 5800 5795 5791 5787 5781 5779 5777 5776 5773 5770 5768 5767 5765 5763 5761 5758 5756 5756 5754 5753 5751 5749 5749 5746
5836 5831 5827 5828 5827 5806 5821 5817 5822 5841 5840 5847 5853 5855 5855 5854 5852 5848 5845 5839 5834 5830 5824 5818 5809 5803 5799 5794 5791 5785 5782 5779 5776 5773 5772 5771 5770 5768 5766 5764 5761 5758 5757 5755 5753 5751 5750 5749 5747
5826 5814 5800 5796 5799 5805 5826 5816 5823 5844 5851 5851 5853 5856 5857 5857 5853 5849 5844 5839 5834 5830 5826 5821 5813 5806 5802 5798 5794 5790 5786 5782 5778 5776 5775 5773 5773 5771 5768 5766 5762 5760 5758 5757 5754 5752 5751 5749 5747
5820 5819 5797 5786 5795 5811 5812 5810 5829 5848 5852 5854 5856 5858 5858 5857 5856 5852 5848 5843 5837 5833 5828 5823 5816 5809 5806 5801 5797 5794 5790 5787 5785 5781 5780 5777 5775 5774 5771 5767 5764 5762 5760 5758 5755 5753 5751 5749 5747
5812 5815 5830 5813 5806 5800 5812 5818 5832 5844 5844 5847 5850 5852 5853 5855 5855 5853 5849 5845 5840 5835 5830 5826 5818 5812 5808 5804 5799 5795 5792 5790 5788 5785 5781 5780 5776 5775 5771 5768 5765 5762 5760 5758 5755 5753 5750 5748 5746
5821 5821 5812 5803 5784 5780 5799 5806 5815 5823 5830 5837 5841 5845 5849 5852 5852 5850 5848 5845 5842 5838 5833 5827 5821 5814 5810 5806 5802 5798 5794 5791 5788 5786 5782 5779 5776 5773 5769 5766 5764 5761 5759 5757 5754 5752 5750 5747 5745
5801 5803 5804 5804 5803 5785 5786 5805 5828 5824 5827 5830 5836 5841 5844 5846 5847 5847 5845 5844 5842 5838 5833 5826 5820 5815 5811 5808 5804 5800 5795 5792 5789 5785 5782 5779 5776 5772 5768 5765 5762 5759 5757 5754 5752 5751 5748 5746 5744
5806 5804 5801 5786 5785 5791 5792 5803 5830 5827 5829 5830 5832 5835 5839 5841 5842 5842 5841 5839 5837 5834 5830 5825 5821 5816 5812 5809 5804 5800 5796 5793 5789 5786 5783 5779 5775 5772 5769 5765 5761 5758 5755 5752 5750 5748 5746 5744 5741